Temp
-10 -10 -10 -10 -10 -11 -11 -11 -12 -12 -13 -13 -14 -14 -14 -14 -14 -15 -15 -15 -16 -16 -16 -17 -17 -17 -17 -17 -17 -17 -15 -15 -15 -16 -16 -16 -15 -15 -14 -15 -15 -15 -14 -14 -13
-10 -10 -11 -11 -11 -11 -11 -12 -13 -13 -13 -14 -14 -14 -14 -15 -15 -15 -15 -16 -16 -16 -16 -17 -18 -18 -18 -18 -17 -17 -16 -16 -17 -17 -16 -16 -15 -15 -15 -15 -15 -15 -14 -14 -14
-11 -11 -11 -11 -11 -11 -12 -12 -13 -14 -14 -14 -14 -14 -15 -15 -15 -15 -16 -16 -16 -16 -16 -18 -19 -19 -19 -18 -18 -17 -17 -17 -17 -16 -16 -16 -16 -15 -15 -15 -15 -15 -15 -14 -14
-11 -11 -11 -11 -12 -12 -12 -13 -13 -14 -14 -14 -15 -15 -15 -16 -16 -16 -16 -16 -16 -16 -17 -18 -19 -19 -19 -19 -18 -18 -18 -18 -17 -17 -17 -17 -16 -16 -16 -16 -15 -15 -15 -14 -14
-12 -12 -12 -12 -12 -12 -13 -13 -14 -14 -15 -15 -15 -15 -16 -17 -17 -17 -16 -17 -17 -17 -17 -18 -19 -20 -20 -19 -18 -18 -18 -18 -18 -18 -17 -17 -17 -17 -16 -16 -17 -16 -15 -14 -14
-12 -12 -12 -12 -12 -13 -13 -14 -14 -15 -15 -15 -16 -16 -16 -17 -17 -17 -17 -17 -17 -17 -17 -18 -20 -20 -20 -19 -18 -18 -18 -18 -18 -18 -18 -17 -17 -16 -17 -17 -17 -16 -16 -15 -14
-12 -12 -12 -13 -13 -13 -14 -15 -15 -15 -15 -16 -16 -16 -17 -17 -18 -18 -18 -18 -18 -18 -18 -19 -20 -21 -20 -20 -20 -19 -18 -18 -18 -18 -17 -17 -17 -17 -17 -17 -16 -16 -16 -16 -15
-12 -12 -13 -13 -13 -14 -14 -15 -15 -16 -16 -16 -17 -17 -17 -18 -18 -18 -18 -18 -18 -18 -19 -19 -19 -20 -20 -20 -20 -19 -19 -18 -18 -18 -18 -17 -17 -18 -17 -17 -16 -16 -16 -16 -16
-13 -13 -13 -14 -14 -14 -15 -15 -16 -16 -16 -17 -17 -17 -18 -18 -18 -18 -19 -19 -19 -19 -19 -19 -19 -19 -20 -20 -20 -20 -18 -19 -20 -19 -18 -17 -17 -18 -17 -17 -17 -17 -17 -16 -16
-14 -14 -14 -14 -14 -15 -15 -16 -16 -16 -17 -17 -18 -18 -18 -18 -19 -19 -19 -19 -19 -19 -19 -19 -19 -19 -19 -19 -20 -19 -19 -19 -20 -20 -18 -17 -17 -17 -18 -17 -17 -17 -17 -17 -17
-14 -14 -14 -15 -15 -16 -16 -16 -17 -17 -17 -18 -18 -18 -19 -19 -19 -19 -19 -19 -19 -20 -20 -20 -20 -20 -20 -20 -19 -19 -19 -19 -20 -20 -18 -18 -17 -18 -18 -18 -17 -17 -18 -18 -17
-15 -15 -15 -15 -15 -16 -16 -17 -17 -18 -18 -18 -19 -18 -19 -19 -19 -19 -19 -20 -20 -20 -20 -20 -20 -20 -20 -20 -20 -20 -20 -20 -20 -20 -19 -19 -18 -18 -19 -19 -19 -18 -18 -17 -17
-15 -15 -16 -16 -16 -16 -17 -17 -17 -18 -18 -18 -19 -19 -19 -19 -19 -20 -20 -20 -20 -20 -20 -20 -20 -20 -20 -20 -20 -20 -20 -20 -20 -20 -19 -18 -18 -19 -20 -19 -19 -19 -18 -17 -17
-16 -16 -16 -16 -17 -17 -17 -17 -18 -18 -18 -18 -18 -19 -19 -20 -20 -20 -20 -20 -20 -20 -20 -21 -21 -21 -21 -21 -20 -21 -21 -20 -20 -20 -20 -19 -18 -20 -21 -20 -19 -19 -19 -18 -18
-17 -17 -17 -17 -17 -17 -17 -18 -18 -19 -18 -18 -18 -19 -20 -20 -20 -20 -20 -20 -20 -20 -21 -21 -21 -21 -21 -21 -21 -21 -21 -21 -21 -21 -20 -20 -20 -19 -20 -20 -20 -19 -19 -19 -18
-17 -17 -17 -17 -18 -18 -18 -18 -19 -20 -20 -19 -19 -20 -20 -20 -20 -21 -21 -20 -21 -21 -21 -21 -21 -21 -21 -21 -21 -21 -21 -21 -21 -21 -20 -21 -21 -21 -21 -20 -20 -20 -20 -19 -19
-18 -18 -18 -18 -18 -19 -19 -19 -20 -20 -20 -20 -20 -20 -20 -21 -20 -21 -21 -21 -21 -21 -21 -21 -21 -21 -21 -21 -22 -21 -21 -21 -21 -21 -21 -21 -21 -21 -22 -22 -20 -20 -20 -20 -20
-18 -19 -18 -19 -19 -19 -19 -19 -20 -20 -21 -21 -21 -21 -21 -21 -21 -21 -21 -21 -21 -21 -21 -21 -21 -21 -22 -22 -22 -22 -22 -22 -22 -21 -21 -21 -22 -22 -22 -22 -21 -20 -20 -20 -20
-19 -19 -19 -19 -19 -19 -20 -20 -20 -21 -21 -22 -22 -21 -21 -22 -22 -22 -22 -21 -21 -21 -22 -21 -21 -21 -21 -21 -21 -22 -22 -23 -23 -22 -22 -22 -23 -24 -23 -23 -22 -21 -21 -21 -20
-19 -19 -19 -19 -19 -20 -20 -21 -21 -22 -22 -22 -22 -22 -22 -22 -22 -22 -22 -21 -22 -22 -22 -22 -22 -22 -22 -22 -22 -22 -23 -23 -23 -23 -23 -23 -23 -25 -23 -23 -22 -22 -22 -22 -21
-19 -20 -20 -20 -20 -21 -21 -21 -22 -22 -23 -23 -23 -23 -22 -23 -23 -23 -22 -22 -22 -23 -23 -23 -23 -22 -23 -23 -23 -24 -24 -24 -24 -24 -24 -24 -24 -24 -24 -24 -23 -23 -22 -22 -22
-20 -21 -21 -21 -22 -22 -22 -22 -23 -23 -23 -24 -23 -23 -23 -23 -23 -23 -23 -23 -23 -23 -23 -24 -23 -23 -24 -25 -24 -24 -25 -25 -25 -25 -25 -25 -25 -25 -25 -24 -25 -24 -24 -23 -22
-21 -22 -22 -23 -23 -23 -24 -24 -24 -24 -24 -24 -24 -24 -24 -24 -24 -24 -24 -24 -24 -24 -24 -24 -24 -24 -24 -25 -26 -26 -26 -26 -26 -26 -26 -26 -25 -25 -26 -26 -25 -24 -24 -24 -24
-22 -23 -24 -24 -24 -25 -25 -25 -25 -25 -25 -25 -25 -24 -24 -25 -25 -25 -25 -25 -26 -25 -26 -26 -26 -26 -25 -26 -26 -27 -27 -27 -27 -27 -26 -26 -26 -26 -26 -26 -26 -26 -25 -24 -23
-24 -24 -24 -25 -25 -25 -25 -25 -25 -25 -26 -25 -25 -25 -25 -26 -26 -26 -26 -26 -26 -26 -26 -27 -26 -27 -27 -27 -27 -27 -27 -28 -28 -28 -28 -26 -27 -26 -27 -27 -27 -27 -26 -25 -25
-25 -25 -26 -27 -26 -26 -26 -26 -26 -26 -26 -26 -26 -26 -26 -27 -26 -26 -26 -27 -27 -27 -27 -27 -27 -27 -27 -28 -28 -28 -28 -28 -28 -28 -29 -28 -27 -27 -28 -27 -27 -26 -26 -26 -26
-26 -26 -28 -28 -27 -27 -27 -27 -27 -26 -26 -26 -27 -27 -27 -27 -27 -27 -27 -27 -28 -28 -28 -28 -28 -29 -28 -29 -29 -28 -27 -28 -29 -29 -29 -29 -28 -29 -29 -28 -27 -27 -26 -26 -26
Height
5771 5769 5767 5764 5763 5761 5757 5754 5753 5750 5747 5746 5744 5741 5738 5735 5732 5728 5724 5721 5716 5712 5709 5707 5708 5710 5712 5713 5714 5716 5721 5727 5730 5733 5738 5736 5739 5744 5748 5750 5754 5755 5758 5762 5765
5765 5763 5762 5759 5756 5753 5750 5747 5745 5744 5741 5739 5737 5734 5732 5728 5725 5721 5718 5714 5709 5704 5701 5699 5700 5702 5704 5705 5707 5710 5714 5719 5723 5724 5723 5728 5731 5735 5743 5745 5747 5750 5751 5756 5757
5760 5757 5755 5753 5750 5746 5743 5741 5738 5737 5735 5732 5730 5728 5726 5721 5720 5716 5713 5708 5702 5698 5693 5692 5694 5696 5697 5697 5700 5703 5707 5710 5714 5715 5717 5722 5726 5729 5735 5737 5740 5743 5742 5744 5748
5753 5751 5748 5745 5743 5740 5736 5733 5731 5729 5727 5726 5724 5722 5719 5716 5715 5710 5707 5703 5697 5692 5689 5687 5688 5690 5690 5692 5692 5695 5698 5701 5705 5707 5709 5713 5719 5721 5725 5729 5731 5735 5736 5738 5741
5747 5744 5741 5738 5735 5732 5729 5726 5724 5722 5720 5719 5717 5715 5713 5710 5708 5705 5702 5698 5693 5689 5685 5682 5682 5683 5683 5684 5686 5687 5690 5693 5697 5700 5701 5703 5710 5713 5717 5719 5723 5726 5727 5728 5732
5739 5736 5734 5730 5727 5724 5720 5718 5716 5716 5713 5712 5710 5708 5706 5705 5702 5699 5697 5693 5689 5685 5681 5679 5676 5676 5676 5676 5678 5679 5683 5686 5690 5693 5694 5695 5701 5703 5712 5712 5713 5717 5720 5720 5723
5730 5727 5725 5722 5720 5717 5714 5711 5709 5708 5707 5705 5703 5701 5700 5700 5697 5694 5692 5689 5685 5682 5679 5675 5672 5670 5671 5670 5672 5673 5676 5679 5682 5683 5686 5688 5695 5698 5700 5702 5705 5709 5712 5713 5714
5722 5718 5716 5714 5711 5708 5706 5704 5702 5700 5699 5698 5696 5695 5693 5693 5691 5689 5687 5685 5681 5678 5676 5673 5669 5666 5666 5667 5667 5669 5669 5670 5672 5675 5679 5682 5688 5689 5690 5695 5698 5701 5703 5705 5707
5713 5710 5707 5705 5703 5700 5698 5697 5695 5693 5691 5691 5690 5688 5688 5687 5686 5684 5682 5681 5678 5674 5673 5671 5668 5665 5662 5661 5662 5662 5664 5665 5666 5666 5670 5674 5678 5682 5683 5685 5689 5692 5694 5696 5697
5704 5702 5699 5696 5694 5691 5689 5688 5687 5685 5684 5684 5683 5683 5682 5681 5680 5678 5676 5674 5673 5671 5669 5668 5666 5663 5661 5660 5659 5657 5658 5659 5661 5663 5662 5667 5668 5677 5677 5678 5681 5684 5685 5687 5688
5696 5692 5689 5687 5685 5683 5681 5681 5680 5679 5677 5677 5676 5675 5674 5675 5674 5672 5671 5669 5668 5666 5665 5663 5663 5661 5659 5658 5657 5655 5654 5654 5655 5656 5657 5661 5661 5667 5670 5669 5671 5674 5675 5677 5678
5687 5683 5680 5678 5677 5675 5673 5672 5671 5671 5670 5668 5667 5668 5667 5667 5667 5665 5664 5663 5662 5660 5659 5660 5658 5656 5655 5654 5653 5652 5651 5651 5651 5650 5649 5653 5655 5657 5661 5660 5658 5661 5664 5667 5670
5677 5674 5672 5670 5669 5667 5665 5665 5663 5662 5662 5661 5660 5659 5659 5660 5659 5658 5657 5655 5654 5653 5652 5653 5651 5651 5650 5648 5647 5647 5646 5647 5647 5646 5645 5645 5648 5650 5650 5647 5650 5652 5656 5660 5664
5666 5665 5663 5663 5662 5659 5657 5656 5654 5654 5653 5652 5651 5650 5651 5650 5649 5649 5647 5648 5646 5646 5645 5644 5644 5643 5643 5642 5640 5642 5641 5640 5640 5641 5641 5640 5641 5644 5639 5639 5643 5645 5647 5650 5653
5659 5657 5656 5654 5653 5651 5650 5647 5646 5645 5642 5644 5642 5642 5641 5641 5640 5639 5639 5638 5637 5636 5637 5635 5635 5635 5635 5633 5633 5633 5634 5634 5633 5633 5633 5636 5631 5637 5632 5633 5634 5637 5638 5640 5642
5649 5648 5647 5645 5644 5642 5641 5638 5637 5637 5632 5633 5633 5632 5631 5630 5629 5628 5628 5627 5627 5627 5627 5626 5625 5626 5626 5624 5624 5624 5625 5625 5624 5624 5624 5628 5626 5621 5625 5626 5626 5627 5627 5630 5632
5639 5639 5638 5636 5635 5633 5632 5630 5629 5626 5626 5625 5623 5622 5621 5620 5619 5618 5618 5617 5617 5618 5618 5617 5616 5616 5616 5616 5615 5615 5615 5615 5615 5614 5616 5617 5618 5617 5613 5616 5620 5621 5620 5621 5622
5629 5629 5627 5626 5624 5624 5623 5621 5619 5618 5616 5614 5612 5611 5611 5610 5610 5609 5608 5608 5608 5607 5607 5607 5607 5607 5607 5606 5605 5604 5605 5605 5603 5604 5606 5607 5607 5606 5604 5605 5610 5611 5612 5613 5613
5618 5618 5617 5615 5614 5613 5612 5610 5608 5608 5606 5604 5602 5601 5601 5601 5600 5599 5598 5598 5598 5597 5597 5596 5597 5596 5595 5595 5594 5594 5594 5594 5593 5594 5594 5597 5600 5593 5592 5595 5599 5601 5603 5604 5604
5606 5605 5605 5604 5602 5601 5601 5600 5598 5596 5595 5594 5593 5591 5591 5590 5590 5589 5587 5588 5587 5587 5586 5586 5586 5585 5584 5582 5582 5582 5582 5580 5581 5581 5581 5584 5584 5581 5582 5585 5587 5590 5592 5593 5594
5594 5593 5592 5591 5591 5590 5589 5589 5587 5585 5584 5583 5581 5579 5579 5578 5578 5577 5575 5576 5576 5575 5574 5573 5574 5575 5572 5569 5570 5571 5569 5568 5567 5567 5567 5569 5569 5568 5570 5572 5574 5576 5580 5582 5582
5582 5581 5581 5579 5579 5578 5578 5577 5576 5573 5572 5570 5569 5568 5567 5565 5565 5563 5563 5563 5563 5561 5560 5559 5559 5561 5561 5554 5553 5556 5555 5554 5551 5555 5553 5553 5556 5558 5560 5562 5562 5564 5566 5567 5569
5569 5569 5567 5567 5566 5566 5566 5565 5563 5561 5559 5557 5556 5556 5554 5553 5551 5550 5549 5550 5548 5548 5546 5545 5544 5545 5546 5542 5539 5538 5539 5538 5536 5537 5539 5537 5544 5544 5548 5551 5549 5549 5552 5554 5556
5556 5555 5555 5555 5554 5555 5554 5551 5550 5548 5547 5545 5544 5543 5542 5540 5538 5537 5536 5536 5536 5535 5533 5530 5530 5530 5530 5525 5524 5524 5524 5523 5521 5520 5520 5524 5528 5529 5530 5532 5534 5532 5537 5539 5541
5544 5543 5543 5543 5543 5543 5541 5540 5538 5536 5535 5534 5533 5530 5529 5528 5525 5523 5522 5522 5524 5521 5519 5515 5516 5514 5512 5509 5507 5509 5511 5507 5503 5503 5498 5512 5506 5518 5515 5513 5513 5515 5516 5521 5527
5531 5531 5532 5532 5531 5531 5530 5528 5527 5525 5525 5523 5521 5517 5516 5515 5513 5512 5512 5511 5510 5507 5504 5501 5499 5496 5495 5493 5491 5490 5492 5492 5490 5488 5485 5485 5488 5491 5490 5489 5492 5496 5500 5502 5507
5519 5520 5522 5522 5521 5520 5519 5517 5516 5516 5514 5511 5509 5506 5503 5501 5502 5502 5499 5498 5496 5494 5490 5486 5481 5476 5475 5474 5469 5468 5478 5476 5474 5470 5468 5466 5474 5463 5464 5469 5473 5474 5478 5484 5490
Wind_Speed
30 32 33 32 34 36 36 38 40 38 35 34 34 33 32 32 30 28 31 31 33 33 34 34 34 34 35 37 40 40 40 39 38 38 29 31 37 37 37 36 37 35 36 34 34
31 33 34 35 35 37 37 38 39 37 35 34 33 33 31 28 25 28 29 31 30 29 31 31 31 31 33 36 39 40 39 38 36 37 41 39 37 38 35 37 38 37 40 36 36
33 34 34 36 37 38 39 39 38 35 35 34 33 33 30 26 24 27 27 29 27 28 27 26 27 30 32 36 36 39 38 42 42 41 39 39 39 44 39 41 41 37 40 41 37
35 35 36 37 38 40 39 38 38 36 33 33 32 32 29 24 24 24 25 26 26 24 24 23 25 28 33 35 36 39 40 39 40 43 45 45 42 40 38 38 40 35 37 40 38
35 35 37 38 39 40 40 37 36 35 31 32 32 32 29 24 24 22 24 23 24 22 22 21 23 29 32 33 36 38 41 40 40 39 40 41 38 37 39 38 34 32 36 38 39
36 39 40 40 41 40 38 35 34 35 29 30 31 31 28 26 24 21 21 21 21 20 18 20 20 26 26 32 39 39 37 39 38 37 39 40 36 39 32 31 36 35 33 37 36
41 41 41 41 42 40 37 34 33 32 31 29 30 30 28 27 24 22 21 20 19 18 18 17 21 23 17 19 33 38 39 37 38 37 38 41 37 34 32 35 36 35 34 35 35
45 44 43 44 41 38 37 35 32 30 30 29 30 30 28 28 25 22 21 21 19 18 18 16 14 18 22 23 21 23 24 33 34 39 43 41 39 33 37 37 36 34 35 36 36
45 43 42 42 40 38 36 34 32 31 30 30 30 30 28 29 26 23 24 22 20 18 19 18 15 12 11 13 16 19 20 22 20 28 36 37 41 31 35 35 35 33 33 34 33
46 43 41 41 40 38 35 33 32 31 31 31 31 31 27 29 27 27 26 24 22 20 20 19 18 16 13 10 8 12 15 19 23 27 27 37 44 38 33 35 35 34 33 32 33
46 41 41 40 39 35 33 33 32 32 32 33 33 32 30 30 29 29 28 27 25 23 22 18 20 19 19 15 13 12 11 9 17 18 27 30 30 29 36 38 36 33 34 33 31
43 41 40 38 35 33 32 33 32 32 33 33 34 33 32 32 31 30 30 30 28 27 25 20 21 22 21 20 19 17 16 14 10 15 19 22 28 34 27 29 35 35 34 36 37
43 40 37 35 33 31 32 33 33 33 34 33 34 35 34 34 33 31 32 32 31 29 28 26 25 23 25 25 24 23 22 20 17 18 19 18 15 22 22 33 34 36 36 40 37
39 37 34 33 31 32 32 34 33 32 34 35 35 36 35 35 36 33 32 31 31 31 32 32 30 29 27 27 30 26 27 26 27 24 21 24 21 11 22 28 32 35 39 39 39
37 34 34 33 33 33 33 33 32 33 34 34 34 34 35 35 35 36 34 34 34 35 35 36 32 31 32 34 33 33 32 32 31 31 31 23 31 19 20 21 27 33 35 37 41
37 36 35 34 35 36 35 34 34 33 36 35 35 37 39 39 38 38 37 35 34 33 34 33 34 33 33 33 33 35 36 37 38 38 37 31 32 35 27 26 22 23 31 38 38
37 38 38 38 37 37 35 34 34 35 35 36 36 38 38 38 37 35 34 32 31 31 30 31 32 29 30 32 33 34 35 38 41 43 42 40 38 36 35 30 27 23 24 32 37
38 38 38 39 37 37 36 35 37 36 35 37 38 38 37 36 35 35 36 34 33 33 31 31 31 31 31 33 36 37 38 40 43 45 45 45 44 39 40 35 32 29 27 26 32
39 39 39 38 39 39 37 37 37 37 38 38 38 39 39 37 37 36 37 38 36 35 35 34 31 33 34 36 39 42 43 44 45 45 47 46 40 35 38 38 39 39 32 31 30
41 41 43 42 42 40 39 39 39 38 39 40 41 40 40 40 39 39 40 40 39 39 39 38 37 38 40 43 45 47 49 48 50 50 49 48 46 37 47 49 47 45 42 38 37
47 45 44 45 44 41 39 40 40 39 40 41 41 42 42 44 43 42 44 43 43 42 43 44 43 42 44 48 48 48 51 53 51 51 50 49 50 46 42 41 41 40 46 45 41
48 47 46 46 43 41 40 40 41 42 43 43 43 44 44 45 46 45 45 45 44 45 45 44 45 45 45 46 51 51 50 51 52 51 51 50 49 49 47 37 41 38 39 40 40
48 49 48 46 44 42 40 42 43 45 47 46 43 42 44 44 45 45 45 44 44 44 44 44 46 47 49 50 49 47 49 49 50 51 51 51 50 48 47 47 41 43 43 46 45
49 48 47 45 43 40 40 44 45 46 46 44 42 41 43 44 42 43 45 46 43 42 43 45 46 47 49 51 51 50 50 51 52 54 54 53 51 48 49 51 52 57 56 50 42
47 46 47 44 41 41 43 45 46 44 42 41 41 42 42 40 40 42 44 44 42 42 44 47 47 48 49 51 52 52 51 53 56 56 59 51 55 50 52 55 56 57 58 60 62
47 45 43 40 40 40 40 42 42 40 38 39 41 40 39 39 42 43 40 40 42 44 47 47 48 51 53 54 55 57 56 56 56 57 59 59 59 57 59 62 62 62 62 62 60
46 43 40 39 37 39 38 39 39 39 39 39 38 37 38 40 40 39 41 43 44 45 47 51 53 56 59 57 59 65 59 56 56 59 59 62 60 64 65 65 65 67 67 65 63
Wind_Direction
301 304 303 304 303 307 310 308 307 303 298 297 301 302 299 301 303 305 305 301 299 298 288 270 261 257 253 252 250 244 247 248 245 244 245 242 241 240 234 238 242 254 257 252 249
301 303 304 305 302 305 308 308 308 304 300 293 298 299 297 299 302 305 307 299 302 308 298 272 262 255 251 250 251 247 243 246 246 242 240 238 238 241 240 243 248 254 261 260 252
304 305 305 304 306 308 308 307 307 304 302 297 293 298 293 297 300 305 305 304 305 314 310 278 260 257 251 249 248 247 244 239 238 240 243 245 247 248 248 249 251 253 252 251 252
304 306 304 304 305 307 308 305 304 303 304 299 293 296 296 298 300 304 307 308 311 319 315 284 265 259 260 256 250 243 242 244 242 244 246 246 246 250 250 248 253 252 253 254 254
305 305 306 306 305 306 306 304 302 300 303 299 294 295 298 300 298 303 306 313 316 321 323 292 272 263 263 258 247 243 242 242 243 243 245 247 245 246 249 248 247 248 248 251 250
307 311 308 305 303 303 302 298 298 297 299 299 296 294 298 298 298 303 306 311 315 321 328 314 281 274 276 261 246 239 236 241 243 242 243 244 242 242 240 243 245 245 244 252 255
306 308 307 306 304 302 300 294 292 291 295 296 294 294 296 295 296 301 304 308 317 323 330 331 298 289 288 282 256 259 248 238 237 238 241 244 242 243 241 240 243 247 245 248 255
306 307 308 306 301 299 296 291 287 285 287 288 288 291 290 291 291 298 303 305 313 319 324 333 322 294 277 276 264 270 283 258 247 235 238 241 237 238 243 242 242 243 245 248 248
306 306 306 304 301 298 292 288 285 284 282 282 282 286 283 288 288 294 299 299 304 312 316 320 329 331 312 291 277 276 271 273 277 272 247 240 238 236 240 241 240 242 245 246 250
305 304 305 304 300 295 289 284 282 281 279 278 279 280 280 283 286 290 291 293 297 301 305 309 313 316 321 332 305 290 274 270 268 268 265 251 251 241 244 246 246 245 242 247 249
303 303 304 301 298 292 286 282 279 279 279 276 275 277 279 281 282 285 287 289 291 291 293 298 300 299 305 311 311 309 312 297 265 263 262 263 258 256 248 246 248 244 246 245 246
301 301 299 298 295 289 284 280 278 278 277 277 277 278 278 279 281 281 283 283 285 286 286 286 291 292 293 293 292 293 296 298 293 277 284 265 259 259 257 256 250 249 247 245 242
299 297 297 295 289 285 282 282 280 278 280 281 279 277 276 278 281 280 281 280 281 280 279 284 280 281 287 287 286 291 290 290 287 285 291 295 287 268 266 255 256 255 248 245 248
295 294 294 290 286 284 283 282 280 280 282 281 276 275 277 278 276 280 278 277 277 277 279 282 278 282 278 278 282 281 281 283 284 279 275 283 285 289 266 259 250 252 256 253 249
293 292 291 289 286 283 281 278 278 275 273 279 281 281 281 279 279 277 276 273 272 272 273 276 277 274 277 279 279 280 279 277 279 279 277 274 280 275 273 274 265 252 245 250 252
290 291 289 287 286 283 279 277 275 272 271 275 281 279 279 279 278 278 278 277 275 272 270 270 273 274 274 276 280 281 281 279 277 275 273 276 273 286 275 271 271 263 252 248 244
290 291 289 287 284 280 276 277 275 275 279 277 276 275 276 276 277 275 274 273 272 271 271 272 270 273 277 278 279 281 281 280 278 277 274 273 271 276 279 273 265 265 259 249 248
285 286 285 284 282 277 277 277 277 278 277 274 274 273 274 274 273 271 270 267 266 265 264 265 268 272 274 277 280 280 279 277 278 278 277 276 276 276 273 272 267 260 257 260 253
283 281 280 279 276 274 272 272 274 276 276 275 274 275 275 273 270 266 266 266 265 263 265 267 270 275 276 277 278 279 281 282 279 275 273 271 268 263 260 263 264 264 259 257 259
277 275 274 273 270 270 271 273 276 276 276 278 278 275 275 274 272 270 267 265 266 267 267 267 269 271 273 276 278 279 278 280 280 277 274 269 266 258 259 260 261 261 259 257 254
274 272 272 272 272 271 272 272 275 277 277 278 278 277 276 277 275 273 269 268 269 271 270 268 268 274 275 276 276 277 277 276 275 272 272 269 265 264 265 267 264 263 260 255 249
272 272 272 270 269 269 270 272 273 275 277 279 279 278 276 275 275 274 273 273 272 271 270 271 272 271 278 281 279 278 278 275 271 269 267 265 260 262 263 263 258 260 262 248 243
270 271 268 268 269 269 270 273 275 276 280 282 283 281 279 278 276 273 273 272 271 272 274 276 278 279 279 279 278 276 273 269 268 267 264 262 260 259 254 241 239 245 245 252 251
266 266 267 269 269 272 274 274 278 280 283 286 286 284 282 281 280 278 274 271 270 273 279 281 282 282 280 278 276 274 275 273 270 268 267 263 261 258 259 257 253 254 248 237 235
263 263 267 269 271 273 274 278 280 283 286 289 289 285 283 283 276 273 272 274 278 281 281 280 281 280 278 276 275 274 272 270 272 271 267 269 265 262 258 254 251 250 250 247 243
259 261 264 269 271 277 281 281 284 286 290 290 287 285 283 277 274 275 277 279 280 281 282 282 282 279 277 275 273 270 268 267 266 269 271 271 268 265 262 257 254 251 247 248 250
258 261 265 269 278 278 282 286 288 292 292 289 286 284 281 276 279 281 282 283 283 282 282 281 281 278 276 273 270 269 272 272 270 266 267 266 267 265 264 262 261 259 254 250 247